This demonstration page uses our WeatherBlox Daily Observations layout. Learn more.

Left ArrowRight Arrow

40.92501, -98.34201

Hourly Observations for June 3, 2020

Temp ( °F °C ) Dew Point ( °F °C ) Humidity (%) Winds ( mph kmh ) Pressure ( in mb ) Visibility ( mi km ) Precip ( " mm )
12:53 am 00:53 Clear 75 23.9 56 13.3 52 52 NNW 6 9 29.93 1013 10 16 0.00 0.00
1:53 am 01:53 Clear 74 23.3 58 14.4 57 57 W 7 11 29.93 1014 10 16 0.00 0.00
2:53 am 02:53 Clear 73 22.8 58 14.4 59 59 WNW 12 19 29.91 1013 10 16 0.00 0.00
3:53 am 03:53 Clear 72 22.2 56 13.3 57 57 NNW 13 20 29.91 1013 10 16 0.00 0.00
4:53 am 04:53 Clear 71 21.7 55 12.8 57 57 N 16 26 29.90 1013 10 16 0.00 0.00
5:53 am 05:53 Clear 70 21.1 55 12.8 59 59 NNE 15 24 29.90 1012 10 16 0.00 0.00
6:53 am 06:53 Sunny 68 20 54 12.2 61 61 NE 13 20 29.88 1012 10 16 0.00 0.00
7:53 am 07:53 Sunny 72 22.2 55 12.8 55 55 NNE 14 22 29.90 1012 10 16 0.00 0.00
8:53 am 08:53 Sunny 76 24.4 55 12.8 48 48 ENE 8 13 29.93 1014 10 16 0.00 0.00
9:53 am 09:53 Sunny 79 26.1 55 12.8 44 44 E 12 19 29.93 1014 10 16 0.00 0.00
10:53 am 10:53 Sunny 82 27.8 56 13.3 41 41 E 7 11 29.93 1013 10 16 0.00 0.00
11:53 am 11:53 Sunny 85 29.4 54 12.2 35 35 ESE 12 19 29.91 1013 10 16 0.00 0.00
12:53 pm 12:53 Sunny 86 30 52 11.1 31 31 SSE 6 9 29.88 1012 10 16 0.00 0.00
1:53 pm 13:53 Sunny 89 31.7 54 12.2 30 30 ESE 7 11 29.86 1011 10 16 0.00 0.00
2:53 pm 14:53 Sunny 90 32.2 53 11.7 28 28 S 6 9 29.83 1010 10 16 0.00 0.00
3:53 pm 15:53 Sunny 92 33.3 52 11.1 26 26 SSE 9 15 29.80 1009 10 16 0.00 0.00
4:53 pm 16:53 Sunny 94 34.4 54 12.2 26 26 SSW 8 13 29.78 1008 10 16 0.00 0.00
5:53 pm 17:53 Sunny 93 33.9 54 12.2 27 27 S 9 15 29.75 1007 10 16 0.00 0.00
6:53 pm 18:53 Sunny 92 33.3 57 13.9 31 31 SW 3 6 29.73 1007 10 16 0.00 0.00
7:53 pm 19:53 Sunny 89 31.7 57 13.9 34 34 S 3 6 29.74 1007 10 16 0.00 0.00
8:39 pm 20:39 Mostly Cloudy with Nearby Thunderstorms 85 29.4 60 15.6 43 43 S 8 13 29.66 1004 10 16 0.00 0.00
8:49 pm 20:49 Cloudy with Thunderstorms 81 27 55 13 42 42 undefined N/A 29.76 1008 9 14 0.00 0.00
8:53 pm 20:53 Windy with Storms Likely 74 23.3 57 13.9 56 56 NNW 31 50 29.83 1010 8 13 0.00 0.00
9:04 pm 21:04 Cloudy with Strong Thunderstorms 67 19.4 62 16.7 84 84 WNW 20 31 29.83 1010 2 3 0.03 0.76
9:17 pm 21:17 Cloudy with Thunderstorms 68 20 63 17.2 84 84 NNW 18 30 29.82 1010 3 5 0.23 5.84
9:29 pm 21:29 Cloudy with Thunderstorms 70 21.1 61 16.1 73 73 NNE 17 28 29.81 1010 10 16 0.23 5.84
9:37 pm 21:37 Cloudy with Nearby Thunderstorms 71 21.7 62 16.7 73 73 NE 23 37 29.78 1008 7 11 0.23 5.84
9:53 pm 21:53 Mostly Cloudy with Nearby Thunderstorms 71 21.7 61 16.1 71 71 ENE 17 28 29.82 1010 10 16 0.25 6.35
10:25 pm 22:25 Mostly Cloudy with Thunderstorms 70 21.1 61 16.1 73 73 ESE 10 17 29.83 1010 4 6 0.03 0.76
10:39 pm 22:39 Mostly Cloudy with Light Rain 70 21.1 60 15.6 71 71 SSE 12 19 29.79 1009 10 16 0.05 1.27
10:53 pm 22:53 Partly Cloudy 69 20.6 62 16.7 78 78 SSE 10 17 29.79 1009 10 16 0.05 1.27
11:53 pm 23:53 Clear 68 20 61 16.1 78 78 S 9 15 29.78 1009 10 16 0.00 0.00

Powered by AerisWeather